Orbital Elements at Epoch 2459200.5 (2020-Dec-17.0) TDB
Reference: JPL 21 (heliocentric ecliptic J2000)
Element | Value | Uncertainty (1-sigma) | Units |
e | .075417934120301 | 4.7776e-08 | |
a | 2.71052050132514 | 1.6901e-08 | au |
q | 2.506098644724476 | 1.3094e-07 | au |
i | 3.767685829157777 | 5.3629e-06 | deg |
node | 30.21188549790883 | 6.1632e-05 | deg |
peri | 15.94789066941187 | 7.0942e-05 | deg |
M | 211.7819723062237 | 3.7838e-05 | deg |
tp | 2459871.582634361788 (2022-Oct-19.08263436) | 0.00017489 | TDB |
period | 1629.96196973675 4.46 | 1.5245e-05 4.174e-08 | d yr |
n | .2208640487839986 | 2.0657e-09 | deg/d |
Q | 2.914942357925805 | 1.8176e-08 | au |
|
| | Orbit Determination Parameters
Additional Information
|